Regional Weather Roundup
Issued by NWS

Home | Current Version | Previous Version | Graphics & Text | Print | Product List | Glossary On
Versions: 1 2 3 4 5 6 7 8 9 10 11 12 13 14 15 16 17 18 19 20 21 22 23 24 25 26 27 28 29 30 31 32 33 34 35 36 37 38 39 40 41 42 43 44 45 46 47 48 49 50
000
ASUS43 KLOT 170810
RWRIL

ILLINOIS REGIONAL WEATHER ROUNDUP
NATIONAL WEATHER SERVICE CHICAGO/ROMEOVILLE IL
300 AM CDT THU APR 17 2014

NOTE: "FAIR" INDICATES FEW OR NO CLOUDS BELOW 12,000 FEET WITH NO
SIGNIFICANT WEATHER AND/OR OBSTRUCTIONS TO VISIBILITY.

* THESE STATIONS ARE NOT UNDER NWS QUALITY CONTROL. THEY ALSO MAY NOT
  REPORT WEATHER SUCH AS PRECIPITATION OR FOG.

ILZ001-002-007-009-015-016-024-170900-
NORTHWEST ILLINOIS

CITY           SKY/WX    TMP DP  RH WIND       PRES   REMARKS
MOLINE         CLOUDY    47  27  45 S17G25    29.99S
STERLING*      MOCLDY    45  28  53 S8        30.04F
SAVANNA*       MOCLDY    45  29  53 S15G23    30.01R
$$

ILZ003-004-008-010-011-017-018-170900-
NORTH CENTRAL ILLINOIS

CITY           SKY/WX    TMP DP  RH WIND       PRES   REMARKS
ROCKFORD       CLOUDY    42  27  55 S17G25    30.08F
FREEPORT*      CLOUDY    44  32  62 S22G29    30.03F
ROCHELLE*      CLOUDY    41  29  63 S20       30.07S
DE KALB*       MOCLDY    39  27  62 SE22      30.09F WCI  29
PERU*          MOCLDY    41  31  68 S10       30.09F
$$

ILZ005-006-012>014-019>023-170900-
NORTHEAST ILLINOIS

CITY           SKY/WX    TMP DP  RH WIND       PRES   REMARKS
CHICAGO-OHARE  MOCLDY    41  23  48 S12       30.14S
CHICAGO-MIDWAY MOCLDY    44  25  47 S15G21    30.15S
AURORA         CLOUDY    40  27  59 SE15      30.11F
LANSING*       CLOUDY    40  26  55 SE12G18   30.17S
WAUKEGAN       MOCLDY    40  29  64 SE15G23   30.13F
DUPAGE AIRPORT CLOUDY    42  26  53 S18       30.11F
KANKAKEE*      CLOUDY    38  28  68 SE7       30.17S WCI  33
WHEELING       MOCLDY    43  25  49 S15       30.15F
MORRIS*        MOCLDY    43  24  47 SE16      30.12F
ROMEOVILLE*    MOCLDY    39  27  60 S15       30.14S WCI  31
NORTHERLY ISL    N/A     43  26  51 SE15        N/A
$$

LMZ740>746-170900-
SOUTHERN LAKE MICHIGAN

STATION/POSITION SKY/WX   TEMP    WIND        PRES    VSBY  WAVE
                          AIR SEA DIR/SP/G                  HT/PER
                          (F)     (DEG/KT/KT) (MB)    (MI)  (FT/S)
WAUKEGAN HARBOR            40     150/ 19/ 22 1021.7S
HARRISON CRIB              43     160/ 18/ 23   N/A
BURNHAM HARBOR             43     160/  9/ 17   N/A
CALUMET HARBOR             42     150/ 10/ 19 1021.9F
MICHIGAN CITY              42     120/ 16/ 20   N/A
$$

ILZ025>027-034>036-040-047-049-050-058-095>099-170900-
WEST-CENTRAL ILLINOIS

CITY           SKY/WX    TMP DP  RH WIND       PRES   REMARKS
QUINCY         PTCLDY    46  27  47 S15       30.06S
GALESBURG*     CLOUDY    44  32  61 S15G22    30.03F
MACOMB*        MOCLDY    44  30  57 S14       30.07S
JACKSONVILLE*  PTCLDY    46  31  54 S13       30.12S
PITTSFIELD*    PTCLDY    48  29  48 S13       30.11R
$$

ILZ028>032-037-038-041>044-048-051>054-059>061-170900-
CENTRAL ILLINOIS

CITY           SKY/WX    TMP DP  RH WIND       PRES   REMARKS
PONTIAC        MOCLDY    41  30  65 S13       30.13F
BLOOMINGTON    PTCLDY    38  28  67 S15       30.13F WCI  29
DECATUR        MOCLDY    43  29  57 S10       30.16S
PEORIA         MOCLDY    44  30  57 S15       30.09F
LACON*         MOCLDY    44  30  57 S13G21    30.08S
LINCOLN*       PTCLDY    42  32  68 S12       30.14S
SPRINGFIELD    PTCLDY    45  30  55 S14       30.13F
TAYLORVILLE    PTCLDY    41  32  70 S8        30.15S
$$

ILZ033-039-045-046-055>057-062-063-170900-
EAST-CENTRAL ILLINOIS

CITY           SKY/WX    TMP DP  RH WIND       PRES   REMARKS
CHAMPAIGN      PTCLDY    35  28  75 SE7       30.16F WCI  29
RANTOUL*       PTCLDY    37  30  76 CALM      30.17S
MATTOON        CLEAR     41  27  57 SE9       30.16F
PARIS*         CLEAR     37  30  76 SE8       30.19S WCI  30
$$

ILZ079-100>102-170900-
SOUTHWEST ILLINOIS

CITY           SKY/WX    TMP DP  RH WIND       PRES   REMARKS
ALTON          CLEAR     38  30  71 E3        30.16R
BELLEVILLE     CLEAR     37  32  83 CALM      30.16S
CAHOKIA*       CLEAR     42  31  64 CALM      30.16S
SPARTA*        CLEAR     37  32  81 SE5       30.18S WCI  34
$$

ILZ064>066-069>071-074>076-080>082-084>086-088>090-092>094-170900-
SOUTH-CENTRAL ILLINOIS

CITY           SKY/WX    TMP DP  RH WIND       PRES   REMARKS
CARBONDALE     CLEAR     36  32  85 CALM      30.19R
CAIRO*         CLEAR     49  34  56 S6        30.20R
MARION         CLEAR     37  32  81 CALM      30.19R
MT. VERNON     CLEAR     34  25  69 CALM      30.19S
CENTRALIA*       N/A     35  32  87 SE5       30.17F WCI  31
SALEM*         CLEAR     38  34  84 SE5       30.18S WCI  35
METROPOLIS*    CLEAR     42  32  67 CALM      30.19R
$$

ILZ067-068-072-073-078-083-087-091-170900-
SOUTHEAST ILLINOIS

CITY           SKY/WX    TMP DP  RH WIND       PRES   REMARKS
FAIRFIELD*     PTCLDY    43  34  70 CALM      30.19S
HARRISBURG*    CLEAR     41  32  71 SE3       30.21R
ROBINSON*      CLEAR     39  31  73 SE6       30.22R WCI  35
CARMI*         PTCLDY    41  36  80 SE8       30.20R
$$

ABBREVIATIONS USED IN REMARKS
   TC - TEMPERATURE IN CELSIUS
  WCI - WIND CHILL INDEX
   HX - HEAT INDEX
  VSB - VISIBILITY
$$




USA.gov is the U.S. government's official web portal to all federal, state and local government web resources and services.